Zurück zum Katalog

STARLINK-34903

AktivKommunikationVLEO
NORAD 65372·PAYLOAD·🇺🇸 United States

Gestartet Aug 28, 2025 von Cape Canaveral Space Force Station

Loading…

Nächste Überflüge (nächste 24 Stunden)

TLE

AktuellSource: CelesTrak SupGP

Epoche: Sep 14, 2026, 15:44 UTC

1 65372C 25190X   26257.65604167  .00026317  00000+0  77796-3 0  2571
2 65372  53.1594   8.6900 0001137  86.6916 199.1192 15.34360658    17

Verfolge STARLINK-34903 in Echtzeit mit AllMySat

Download on the App Store